HAWK-2C

Last updated on Sun Jun 21 2026 00:03:43 GMT+0000 (Coordinated Universal Time)

1 47502U 21006CT 26171.15159575 .00005134 00000+0 15492-3 0 9998 2 47502 97.2275 215.4025 0007027 175.4845 184.6464 15.34692888299952
UTC large
Height (km)
Speed (km/s)
/
Latitude / Longitude
Inclination (degrees)
Orbital Period (minutes)
Azimuth
Elevation
Range (km)
Doppler Factor

Next 0 passes for location: London (51.5072 / 0.1276)

No passes found over London.
HAWK-2C